Location: Austin
(30.3000°N, 97.7500°W)
Time: 00:06:40
(UTC-05:00)

USA 245 - Pass Details

Date: 11 June 2024
Orbit: 269 x 998 km, 97.9° (Epoch: 17 June)

Event Time Altitude Azimuth Distance (km) Brightness Sun altitude
Exits shadow 22:42:15 32° 15° (NNE) 740 4.2 -22.9°
Drops below altitude 10° 22:44:24 10° 357° (N) 1,606 6.4 -23.2°
Sets 22:46:44 0° 353° (N) 2,622 7.6 -23.6°
